Starlink 30493

operational
NORAD ID: 58116 Int'l Des: 2023-161 Owner: SPXS Country: US Constellation: starlink
LEOCIRCULAR

Starlink 30493について

説明を読み込み中...

リアルタイム位置

3D地球を読み込み中...

次回通過

高度履歴

Altitude vs Time

uPlot chart will show altitude changes over time

軌道要素

1 58116U 23161V 25302.50152287 -.00000491 00000-0 -44462-5 0 9997
2 58116 53.1603 55.0632 0001172 90.7298 269.3837 15.30191149114332
Epoch: Oct 29, 2025 • Age: 6 hours

現在のステータス

高度 478.9 km
速度 7.63 km/s
衛星直下点 -12.88°S, 92.18°E
打ち上げ日 Oct 21, 2023
運用期間 2 years
タイプ internet

技術仕様

分類 Payload
質量 730.00 kg
乾燥質量 700.00 kg
総質量 730.00 kg
長さ 0.30 m
直径 4.10 m
スパン 29.00 m
形状 Box + pan
製造者 SPXS
バスタイプ Starlink V2M
フェーズステータス In Orbit
所有者/国 SPXS/US

大規模コンステレーション

Loading constellations...